Portland Troutdale, OR

5:01 AM PST on December 15, 2017 (GMT -0800)
Portland-Troutdale

Weather History for KTTD - August, 2013

Change the Weather History Date:

Monday, August 26, 2013

  Actual Average Record
Temperature  
Mean Temperature 72 °F 67 °F  
Max Temperature 82 °F 81 °F 103 °F (1986)
Min Temperature 62 °F 53 °F 42 °F (1955)
Degree Days  
Heating Degree Days 0 1  
Month to date heating degree days 5 26  
Cooling Degree Days 7 3  
Month to date cooling degree days 153 107  
Growing Degree Days 22 (Base 50)    
Moisture  
Dew Point 57 °F    
Average Humidity 58    
Maximum Humidity 87    
Minimum Humidity 28    
Precipitation  
Precipitation T in 0.04 in 1.40 in (1977)
Month to date precipitation 0.08 0.64  
Year to date precipitation 16.60 26.50  
Snow  
Snow 0.00 in - - ()
Month to date snowfall 0.0  
Since 1 June snowfall 0.0  
Snow Depth 0.00 in    
Sea Level Pressure  
Sea Level Pressure 29.92 in    
Wind  
Wind Speed 3 mph (South)    
Max Wind Speed 16 mph    
Max Gust Speed 21 mph    
Visibility 10 miles    
Events Rain    
T = Trace of Precipitation, MM = Missing Value Source: NWS Daily Summary

Daily Weather History Graph

Daily Weather History Graph

Search for Another Location

Airport or City:

Trip Planner

Search our weather history database for the weather conditions in past years. The results will help you decide how hot, cold, wet, or windy it might be!

Date:

Astronomy

Aug. 26, 2013 Rise Set
Actual Time 6:24 AM PDT 7:57 PM PDT
Civil Twilight 5:52 AM PDT 8:28 PM PDT
Nautical Twilight 5:15 AM PDT 9:06 PM PDT
Astronomical Twilight 4:34 AM PDT 9:46 PM PDT
Moon 10:50 PM PDT (8/26) 12:51 PM PDT (8/26)
Length of Visible Light 14h 35m
Length of Day
13h 33m
Waning Gibbous, 65% of the Moon is Illuminated
Aug 26
Waning Gibbous
Aug 28
Last Quarter
Sep 5
New
Sep 12
First Quarter
Sep 19
Full

Hourly Weather History & Observations

Time (PDT) Temp. Dew Point Humidity Pressure Visibility Wind Dir Wind Speed Gust Speed Precip Events Conditions
12:27 AM 64.4 °F 60.8 °F 88% 29.90 in 10.0 mi East 3.5 mph - N/A   Overcast
12:53 AM 64.0 °F 61.0 °F 90% 29.90 in 10.0 mi East 3.5 mph - N/A   Overcast
1:53 AM 64.0 °F 61.0 °F 90% 29.90 in 10.0 mi Calm Calm - N/A   Overcast
2:53 AM 64.0 °F 60.1 °F 87% 29.90 in 10.0 mi Calm Calm - N/A   Mostly Cloudy
3:53 AM 64.0 °F 60.1 °F 87% 29.91 in 10.0 mi Calm Calm - N/A   Overcast
4:13 AM 64.4 °F 59.0 °F 83% 29.91 in 10.0 mi Calm Calm - N/A   Overcast
4:22 AM 62.6 °F 60.8 °F 94% 29.90 in 10.0 mi Calm Calm - N/A   Overcast
4:31 AM 62.6 °F 60.8 °F 94% 29.91 in 10.0 mi Calm Calm - N/A   Overcast
4:53 AM 64.0 °F 60.1 °F 87% 29.91 in 10.0 mi Calm Calm - N/A   Overcast
5:25 AM 64.4 °F 60.8 °F 88% 29.91 in 10.0 mi Calm Calm - N/A   Overcast
5:53 AM 64.0 °F 60.1 °F 87% 29.91 in 10.0 mi Calm Calm - N/A   Overcast
6:53 AM 64.0 °F 60.1 °F 87% 29.92 in 10.0 mi Calm Calm - N/A   Overcast
7:53 AM 64.0 °F 59.0 °F 84% 29.92 in 10.0 mi ESE 3.5 mph - N/A   Overcast
8:19 AM 64.4 °F 57.2 °F 77% 29.92 in 10.0 mi SSE 4.6 mph - N/A   Overcast
8:53 AM 64.9 °F 57.9 °F 78% 29.91 in 10.0 mi Calm Calm - N/A   Overcast
9:02 AM 64.4 °F 59.0 °F 83% 29.91 in 10.0 mi Calm Calm - N/A   Overcast
9:53 AM 68.0 °F 60.1 °F 76% 29.91 in 10.0 mi Calm Calm - N/A   Partly Cloudy
10:53 AM 72.0 °F 59.0 °F 64% 29.91 in 10.0 mi Calm Calm - N/A   Mostly Cloudy
11:03 AM 71.6 °F 59.0 °F 64% 29.91 in 10.0 mi Calm Calm - N/A   Mostly Cloudy
11:29 AM 71.6 °F 57.2 °F 60% 29.91 in 10.0 mi WSW 3.5 mph - N/A   Overcast
11:53 AM 73.0 °F 55.9 °F 55% 29.91 in 10.0 mi SW 10.4 mph - N/A   Mostly Cloudy
12:53 PM 75.9 °F 54.0 °F 46% 29.90 in 10.0 mi SSW 9.2 mph - N/A   Scattered Clouds
1:53 PM 75.9 °F 51.1 °F 42% 29.90 in 10.0 mi South 9.2 mph - N/A   Scattered Clouds
2:53 PM 80.1 °F 48.9 °F 34% 29.89 in 10.0 mi SW 11.5 mph - N/A   Scattered Clouds
3:53 PM 82.0 °F 46.9 °F 29% 29.88 in 10.0 mi SSW 12.7 mph 17.3 mph N/A   Clear
4:53 PM 79.0 °F 46.0 °F 31% 29.89 in 10.0 mi SW 11.5 mph - N/A   Overcast
5:53 PM 75.0 °F 50.0 °F 41% 29.89 in 10.0 mi West 6.9 mph - 0.00 in   Overcast
6:53 PM 73.0 °F 50.0 °F 44% 29.91 in 10.0 mi Variable 5.8 mph - N/A   Overcast
7:53 PM 70.0 °F 53.1 °F 55% 29.94 in 10.0 mi Calm Calm - 0.00 in Rain Light Rain
8:53 PM 64.9 °F 57.0 °F 75% 29.97 in 10.0 mi Calm Calm - 0.00 in Rain Light Rain
9:19 PM 64.4 °F 57.2 °F 77% 29.97 in 10.0 mi Calm Calm - 0.00 in   Overcast
9:33 PM 64.4 °F 57.2 °F 77% 29.97 in 10.0 mi NNE 3.5 mph - 0.00 in   Overcast
9:53 PM 64.9 °F 59.0 °F 81% 29.97 in 10.0 mi Calm Calm - 0.00 in   Overcast
10:53 PM 63.0 °F 57.9 °F 84% 29.97 in 10.0 mi Calm Calm - N/A   Overcast
11:53 PM 62.1 °F 57.0 °F 84% 29.96 in 10.0 mi Calm Calm - N/A   Mostly Cloudy